Whidbey Island, WA
on Sunday, February 17, 2013

Sunday
Previous Day Next Day
Daily Summary
 ActualAverageRecord
Temperature
Mean Temperature °F / °C °F / °C  
Max Temperature 45°F / 7°C 47°F / 8°C 57°F / 13°C (2007)
Min Temperature 37°F / 3°C 34°F / 1°C 23°F / -5°C (2006)
Degree Days
Heating Degree Days 24    
Moisture
Dew Point 37°F / 3°C   
Average Humidity 84    
Maximum Humidity 89    
Minimum Humidity 76    
Precipitation
Precipitation 0.11 in / 2.79 cm in / cm in / cm ()
Wind
Wind Speed 12 mph / 19 km/h   
Max Wind Speed 22 mph / 35 km/h   
Max Gust Speed 26 mph / 42 km/h   
Visibility 9 miles / 15 kilometers   
Events Rain   
Averages and records for this station are not official NWS values.
Key: T is trace of precipitation, MM is missing value
Source: NWS Daily Summary
Seasonal Weather Averages
Time(PST)TemperatureDew PointHumidity Pressure Visibility Wind DirectionWind SpeedGust SpeedPrecipitationEvents Conditions
12:56 AM 44.1°F / 6.7°C 37.9°F / 3.3°C 79% 30.21 in / 1022.9 hPa 10.0 miles / 16.1 kilometers West 18.4 mph / 29.6 km/h 25.3 mph / 40.7 km/h N/A   Overcast
1:56 AM 45.0°F / 7.2°C 37.9°F / 3.3°C 76% 30.22 in / 1023.2 hPa 10.0 miles / 16.1 kilometers West 21.9 mph / 35.2 km/h 26.5 mph / 42.6 km/h N/A   Overcast
2:23 AM 44.6°F / 7.0°C 37.4°F / 3.0°C 76% 30.20 in / 1022.6 hPa 9.0 miles / 14.5 kilometers West 17.3 mph / 27.8 km/h - 0.00 in / 0.0 cm Rain Light Rain
2:56 AM 44.1°F / 6.7°C 37.9°F / 3.3°C 79% 30.22 in / 1023.1 hPa 9.0 miles / 14.5 kilometers West 18.4 mph / 29.6 km/h 25.3 mph / 40.7 km/h 0.00 in / 0.0 cm Rain Light Rain
3:56 AM 43.0°F / 6.1°C 37.9°F / 3.3°C 82% 30.22 in / 1023.2 hPa 9.0 miles / 14.5 kilometers WNW 13.8 mph / 22.2 km/h - 0.00 in / 0.0 cm Rain Light Rain
4:56 AM 43.0°F / 6.1°C 37.9°F / 3.3°C 82% 30.22 in / 1023.3 hPa 9.0 miles / 14.5 kilometers West 12.7 mph / 20.4 km/h - 0.01 in / 0.3 cm Rain Light Rain
5:56 AM 43.0°F / 6.1°C 37.0°F / 2.8°C 80% 30.23 in / 1023.5 hPa 7.0 miles / 11.3 kilometers WSW 12.7 mph / 20.4 km/h - 0.02 in / 0.5 cm Rain Light Rain
6:37 AM 42.8°F / 6.0°C 37.4°F / 3.0°C 81% 30.21 in / 1022.9 hPa 10.0 miles / 16.1 kilometers West 10.4 mph / 16.7 km/h - 0.00 in / 0.0 cm   Overcast
6:56 AM 43.0°F / 6.1°C 37.0°F / 2.8°C 80% 30.23 in / 1023.5 hPa 10.0 miles / 16.1 kilometers WSW 8.1 mph / 13.0 km/h - 0.00 in / 0.0 cm   Mostly Cloudy
7:36 AM 39.2°F / 4.0°C 35.6°F / 2.0°C 87% 30.22 in / 1023.2 hPa 10.0 miles / 16.1 kilometers East 11.5 mph / 18.5 km/h - N/A   Mostly Cloudy
7:56 AM 39.9°F / 4.4°C 36.0°F / 2.2°C 86% 30.24 in / 1024.0 hPa 10.0 miles / 16.1 kilometers East 6.9 mph / 11.1 km/h - N/A   Mostly Cloudy
8:56 AM 39.9°F / 4.4°C 37.0°F / 2.8°C 89% 30.25 in / 1024.3 hPa 10.0 miles / 16.1 kilometers East 10.4 mph / 16.7 km/h - N/A   Mostly Cloudy
9:56 AM 41.0°F / 5.0°C 37.0°F / 2.8°C 86% 30.26 in / 1024.5 hPa 10.0 miles / 16.1 kilometers East 6.9 mph / 11.1 km/h - N/A   Mostly Cloudy
10:11 AM 42.8°F / 6.0°C 37.4°F / 3.0°C 81% 30.25 in / 1024.3 hPa 10.0 miles / 16.1 kilometers East 4.6 mph / 7.4 km/h - 0.01 in / 0.3 cm Rain Light Rain
10:56 AM 42.1°F / 5.6°C 37.9°F / 3.3°C 85% 30.25 in / 1024.4 hPa 10.0 miles / 16.1 kilometers East 4.6 mph / 7.4 km/h - 0.01 in / 0.3 cm   Mostly Cloudy
11:07 AM 42.8°F / 6.0°C 37.4°F / 3.0°C 81% 30.24 in / 1023.9 hPa 10.0 miles / 16.1 kilometers ENE 4.6 mph / 7.4 km/h - 0.00 in / 0.0 cm Rain Light Rain
11:56 AM 41.0°F / 5.0°C 37.0°F / 2.8°C 86% 30.26 in / 1024.5 hPa 4.0 miles / 6.4 kilometers NNE 4.6 mph / 7.4 km/h - 0.06 in / 1.5 cm Rain Rain
12:11 PM 39.2°F / 4.0°C 35.6°F / 2.0°C 87% 30.24 in / 1023.9 hPa 5.0 miles / 8.0 kilometers North 8.1 mph / 13.0 km/h - 0.01 in / 0.3 cm Rain Light Rain
12:56 PM 42.1°F / 5.6°C 37.9°F / 3.3°C 85% 30.25 in / 1024.1 hPa 10.0 miles / 16.1 kilometers NNE 4.6 mph / 7.4 km/h - 0.01 in / 0.3 cm   Overcast
1:56 PM 41.0°F / 5.0°C 37.0°F / 2.8°C 86% 30.24 in / 1023.9 hPa 10.0 miles / 16.1 kilometers North 6.9 mph / 11.1 km/h - N/A   Overcast
2:56 PM 42.1°F / 5.6°C 37.9°F / 3.3°C 85% 30.22 in / 1023.4 hPa 10.0 miles / 16.1 kilometers North 5.8 mph / 9.3 km/h - 0.00 in / 0.0 cm Rain Light Rain
3:24 PM 42.8°F / 6.0°C 39.2°F / 4.0°C 87% 30.21 in / 1022.9 hPa 10.0 miles / 16.1 kilometers North 4.6 mph / 7.4 km/h - 0.00 in / 0.0 cm   Overcast
3:56 PM 44.1°F / 6.7°C 39.0°F / 3.9°C 82% 30.21 in / 1022.9 hPa 10.0 miles / 16.1 kilometers NNE 4.6 mph / 7.4 km/h - 0.00 in / 0.0 cm   Overcast
4:56 PM 44.1°F / 6.7°C 37.0°F / 2.8°C 76% 30.20 in / 1022.6 hPa 10.0 miles / 16.1 kilometers East 4.6 mph / 7.4 km/h - N/A   Overcast
5:56 PM 39.9°F / 4.4°C 36.0°F / 2.2°C 86% 30.19 in / 1022.1 hPa 10.0 miles / 16.1 kilometers East 3.5 mph / 5.6 km/h - N/A   Mostly Cloudy
6:56 PM 39.0°F / 3.9°C 35.1°F / 1.7°C 86% 30.18 in / 1022.0 hPa 10.0 miles / 16.1 kilometers Calm Calm - N/A   Mostly Cloudy
7:56 PM 37.0°F / 2.8°C 34.0°F / 1.1°C 89% 30.18 in / 1021.8 hPa 10.0 miles / 16.1 kilometers East 4.6 mph / 7.4 km/h - N/A   Mostly Cloudy
8:56 PM 37.0°F / 2.8°C 34.0°F / 1.1°C 89% 30.18 in / 1021.8 hPa 10.0 miles / 16.1 kilometers East 4.6 mph / 7.4 km/h - N/A   Overcast
9:56 PM 37.9°F / 3.3°C 35.1°F / 1.7°C 89% 30.17 in / 1021.4 hPa 10.0 miles / 16.1 kilometers East 5.8 mph / 9.3 km/h - N/A   Overcast
10:56 PM 39.0°F / 3.9°C 36.0°F / 2.2°C 89% 30.15 in / 1021.0 hPa 10.0 miles / 16.1 kilometers East 5.8 mph / 9.3 km/h - N/A   Overcast
11:56 PM 39.9°F / 4.4°C 36.0°F / 2.2°C 86% 30.13 in / 1020.1 hPa 10.0 miles / 16.1 kilometers East 8.1 mph / 13.0 km/h - N/A   Overcast
Moon Phase
Feb. 17 Feb. 17 Feb. 25 Mar. 04 Mar. 11
Sunrise:07:13 AM (PST) Moon Rise:10:32 AM (PST)2/17
Sunset:05:36 PM (PST) Moon Set:01:13 AM (PST)2/17

Copyright © 2014 The Weather Underground, Inc.